period_start,C,m1,H,J0,J1,J2,J3,J4,J5,JA,JB,JC,JD,JJ,JK,JN,#
2014-11-02 00:02:27,0.13,1.11,0.00,23.13,27.70,30.63,4.82,27.02,1011.27,2030.96,2962.16,3002.42,3248.41,350.21,345.60,6.65,0000 0000 0000 0000 000000
2014-11-02 00:07:28,0.14,1.11,0.00,22.98,27.70,30.67,4.79,26.92,1011.29,2030.97,2960.52,3001.27,3247.09,350.10,345.98,6.68,0000 0000 0000 0000 000000
2014-11-02 00:12:29,0.16,1.12,0.00,23.06,27.70,30.70,4.75,26.98,1011.26,2030.99,2958.81,3000.03,3245.70,350.24,346.02,6.71,0000 0000 0000 0000 000000
2014-11-02 00:17:31,0.17,1.12,0.00,23.17,27.70,30.72,4.84,27.18,1011.25,2030.97,2956.94,2998.64,3244.32,349.83,345.55,6.74,0000 0000 0000 0000 000000
2014-11-02 00:22:32,0.17,1.13,0.00,23.26,27.70,30.71,4.74,27.13,1011.24,2030.95,2954.92,2997.24,3242.69,349.62,345.33,6.77,0000 0000 0000 0000 000000
2014-11-02 00:27:33,0.19,1.13,0.00,23.28,27.70,30.68,4.82,26.90,1011.22,2030.95,2952.88,2995.69,3241.05,350.07,345.68,6.80,0000 0000 0000 0000 000000
2014-11-02 00:32:34,0.16,1.14,0.00,23.07,27.70,30.66,4.81,27.04,1011.20,2030.92,2950.77,2994.22,3239.46,350.10,345.74,6.83,0000 0000 0000 0000 000000
2014-11-02 00:37:35,0.20,1.14,0.00,22.99,27.70,30.70,4.82,27.24,1011.06,2030.94,2948.79,2992.74,3237.82,350.54,346.34,6.86,0000 0000 0000 0000 000000
2014-11-02 00:42:37,0.16,1.15,0.00,23.12,27.70,30.71,4.74,27.27,1011.09,2030.98,2946.79,2991.38,3236.26,349.90,345.68,6.89,0000 0000 0000 0000 000000
2014-11-02 00:47:38,0.21,1.15,0.00,23.17,27.70,30.71,4.76,27.18,1011.22,2030.98,2944.65,2989.73,3234.58,349.74,345.37,6.92,0000 0000 0000 0000 000000
2014-11-02 00:52:40,0.20,1.16,0.00,23.22,27.70,30.70,4.78,26.95,1011.24,2030.96,2942.38,2988.03,3232.70,349.97,345.56,6.94,0000 0000 0000 0000 000000
2014-11-02 00:57:41,0.19,1.17,0.00,23.29,27.70,30.68,4.76,26.99,1011.24,2030.96,2940.22,2986.48,3230.97,350.23,345.75,6.97,0000 0000 0000 0000 000000
2014-11-02 01:02:42,0.19,1.17,0.00,23.22,27.70,30.65,4.76,27.00,1011.27,2030.92,2938.06,2984.84,3229.16,349.96,345.66,7.00,0000 0000 0000 0000 000000
2014-11-02 01:07:43,0.16,1.18,0.00,23.04,27.70,30.68,4.73,26.95,1011.28,2030.82,2935.87,2983.25,3227.37,349.55,345.36,7.03,0000 0000 0000 0000 000000
2014-11-02 01:12:44,0.20,1.18,0.00,23.00,27.70,30.70,4.77,26.91,1011.53,2030.76,2933.73,2981.67,3225.69,350.04,345.99,7.06,0000 0000 0000 0000 000000
2014-11-02 01:17:45,0.18,1.19,0.00,23.12,27.70,30.73,4.83,27.07,1011.67,2030.82,2931.62,2980.20,3224.03,350.50,346.16,7.09,0000 0000 0000 0000 000000
2014-11-02 01:22:46,0.18,1.19,0.00,23.20,27.70,30.70,4.77,27.20,1011.64,2030.73,2929.54,2978.69,3222.36,350.18,346.21,7.12,0000 0000 0000 0000 000000
2014-11-02 01:27:47,0.19,1.20,0.00,23.26,27.70,30.71,4.74,27.18,1011.47,2030.81,2927.48,2977.22,3220.73,349.91,345.35,7.15,0000 0000 0000 0000 000000
2014-11-02 01:32:49,0.21,1.20,0.00,23.34,27.70,30.67,4.78,27.13,1011.30,2030.89,2925.39,2975.68,3219.06,350.42,345.83,7.18,0000 0000 0000 0000 000000
2014-11-02 01:37:50,0.18,1.21,0.00,23.14,27.70,30.65,4.73,27.04,1011.26,2030.88,2923.31,2974.14,3217.44,349.80,345.49,7.21,0000 0000 0000 0000 000000
2014-11-02 01:42:51,0.19,1.22,0.00,22.98,27.70,30.71,4.86,27.12,1011.26,2030.87,2921.28,2972.63,3215.78,350.41,346.40,7.24,0000 0000 0000 0000 000000
2014-11-02 01:47:53,0.17,1.22,0.00,23.01,27.70,30.73,4.79,27.08,1011.25,2030.90,2919.28,2971.26,3214.32,350.04,345.65,7.27,0000 0000 0000 0000 000000
2014-11-02 01:52:54,0.16,1.23,0.00,23.08,27.70,30.72,4.85,27.18,1011.24,2030.90,2917.42,2969.91,3212.85,350.40,345.98,7.30,0000 0000 0000 0000 000000
2014-11-02 01:57:55,0.17,1.23,0.00,23.20,27.70,30.73,4.94,27.14,1011.14,2030.93,2915.69,2968.61,3211.52,351.06,346.27,7.33,0000 0000 0000 0000 000000
2014-11-02 02:02:56,0.12,1.24,0.00,23.25,27.70,30.69,4.77,27.10,1010.83,2030.78,2913.83,2967.32,3210.01,349.94,345.40,7.35,0000 0000 0000 0000 000000
2014-11-02 02:07:58,0.19,1.24,0.00,23.34,27.70,30.67,4.72,27.20,1010.77,2030.77,2911.91,2965.89,3208.54,349.92,345.19,7.38,0000 0000 0000 0000 000000
2014-11-02 02:12:59,0.17,1.24,0.00,23.17,27.70,30.63,4.77,27.25,1010.76,2030.77,2910.02,2964.54,3207.00,349.80,345.22,7.41,0000 0000 0000 0000 000000
2014-11-02 02:18:01,0.15,1.25,0.00,23.22,27.70,30.64,4.75,27.09,1010.77,2030.75,2908.13,2963.18,3205.53,350.52,345.83,7.44,0000 0000 0000 0000 000000
2014-11-02 02:23:02,0.15,1.25,0.00,23.05,27.70,30.68,4.80,27.07,1010.79,2030.65,2906.14,2961.72,3203.96,350.35,346.03,7.47,0000 0000 0000 0000 000000
2014-11-02 02:28:03,0.18,1.26,0.00,23.03,27.70,30.70,4.78,27.14,1010.83,2030.66,2904.16,2960.29,3202.40,350.36,346.00,7.50,0000 0000 0000 0000 000000
2014-11-02 02:33:04,0.20,1.27,0.00,23.11,27.70,30.73,4.78,27.06,1011.13,2030.74,2902.24,2958.85,3200.84,349.81,345.43,7.53,0000 0000 0000 0000 000000
2014-11-02 02:38:06,0.16,1.27,0.00,23.20,27.69,30.73,4.75,27.31,1011.23,2030.70,2900.18,2957.43,3199.32,349.85,345.47,7.56,0000 0000 0000 0000 000000
2014-11-02 02:43:07,0.21,1.28,0.00,23.18,27.68,30.73,4.77,27.22,1011.24,2030.76,2898.19,2955.90,3197.80,350.45,345.89,7.59,0000 0000 0000 0000 000000
2014-11-02 02:48:08,0.17,1.28,0.00,23.21,27.68,30.68,4.76,27.11,1011.24,2030.91,2896.38,2954.67,3196.41,349.87,345.47,7.62,0000 0000 0000 0000 000000
2014-11-02 02:53:09,0.16,1.29,0.00,23.30,27.68,30.67,4.82,26.88,1011.25,2030.94,2894.61,2953.40,3195.04,350.99,346.49,7.65,0000 0000 0000 0000 000000
2014-11-02 02:58:10,0.16,1.29,0.00,23.31,27.69,30.62,4.75,27.07,1011.25,2030.93,2892.83,2952.08,3193.61,350.06,345.46,7.68,0000 0000 0000 0000 000000
2014-11-02 03:03:11,0.17,1.30,0.00,23.13,27.68,30.63,4.78,27.06,1011.25,2030.86,2890.86,2950.68,3192.10,350.26,346.08,7.71,0000 0000 0000 0000 000000
2014-11-02 03:08:13,0.17,1.30,0.00,23.02,27.69,30.65,4.86,27.10,1011.24,2030.85,2888.98,2949.37,3190.62,350.03,345.93,7.74,0000 0000 0000 0000 000000
2014-11-02 03:13:14,0.14,1.31,0.00,23.12,27.69,30.68,4.78,27.03,1011.24,2030.91,2887.29,2948.07,3189.26,350.14,345.75,7.76,0000 0000 0000 0000 000000
2014-11-02 03:18:15,0.18,1.31,0.00,23.20,27.69,30.70,4.75,27.13,1011.23,2030.88,2885.46,2946.76,3187.80,349.91,345.61,7.79,0000 0000 0000 0000 000000
2014-11-02 03:23:17,0.14,1.32,0.00,23.27,27.69,30.66,4.74,27.08,1011.22,2030.86,2883.71,2945.50,3186.41,350.02,345.62,7.82,0000 0000 0000 0000 000000
2014-11-02 03:28:18,0.13,1.32,0.00,23.36,27.69,30.65,4.78,27.08,1011.18,2030.84,2882.02,2944.33,3185.07,350.04,345.37,7.85,0000 0000 0000 0000 000000
2014-11-02 03:33:19,0.15,1.33,0.00,23.14,27.69,30.60,4.81,27.02,1011.12,2030.90,2880.46,2943.27,3183.87,350.18,345.93,7.88,0000 0000 0000 0000 000000
2014-11-02 03:38:20,0.14,1.33,0.00,23.00,27.69,30.66,4.81,27.18,1011.03,2030.92,2878.90,2942.14,3182.61,349.72,345.59,7.91,0000 0000 0000 0000 000000
2014-11-02 03:43:22,0.14,1.33,0.00,23.08,27.69,30.72,4.80,27.06,1011.15,2030.95,2877.47,2940.99,3181.47,349.80,345.63,7.94,0000 0000 0000 0000 000000
2014-11-02 03:48:23,0.14,1.34,0.00,23.15,27.69,30.72,4.80,26.91,1011.23,2030.96,2875.94,2939.92,3180.27,349.27,345.00,7.97,0000 0000 0000 0000 000000
2014-11-02 03:53:24,0.13,1.34,0.00,23.22,27.69,30.67,4.81,27.01,1011.24,2030.95,2874.52,2938.89,3179.12,350.38,345.78,8.00,0000 0000 0000 0000 000000
2014-11-02 03:58:25,0.11,1.35,0.00,23.29,27.69,30.65,4.73,27.06,1011.24,2030.96,2873.22,2937.96,3178.06,349.94,345.65,8.03,0000 0000 0000 0000 000000
2014-11-02 04:03:27,0.12,1.35,0.00,23.39,27.70,30.64,4.80,27.09,1011.24,2030.90,2871.87,2936.93,3176.99,350.22,345.55,8.06,0000 0000 0000 0000 000000
2014-11-02 04:08:28,0.12,1.35,0.00,23.23,27.70,30.62,4.75,27.08,1011.24,2030.87,2870.48,2935.91,3175.90,350.06,345.73,8.09,0000 0000 0000 0000 000000
2014-11-02 04:13:29,0.11,1.36,0.00,23.15,27.70,30.60,4.80,26.95,1011.24,2030.91,2869.17,2934.98,3174.84,350.28,345.89,8.12,0000 0000 0000 0000 000000
2014-11-02 04:18:30,0.13,1.36,0.00,23.08,27.70,30.64,4.77,27.03,1011.25,2030.88,2867.86,2934.00,3173.79,350.16,345.74,8.15,0000 0000 0000 0000 000000
2014-11-02 04:23:31,0.12,1.36,0.00,23.14,27.70,30.71,4.77,27.08,1011.27,2030.82,2866.47,2933.03,3172.71,349.57,345.44,8.17,0000 0000 0000 0000 000000
2014-11-02 04:28:33,0.12,1.37,0.00,23.19,27.70,30.71,4.84,26.95,1011.26,2030.85,2865.08,2931.98,3171.56,350.46,346.01,8.20,0000 0000 0000 0000 000000
2014-11-02 04:33:34,0.10,1.37,0.00,23.24,27.70,30.69,4.86,27.08,1011.40,2030.63,2863.60,2930.88,3170.39,350.21,345.90,8.23,0000 0000 0000 0000 000000
2014-11-02 04:38:35,0.09,1.37,0.00,23.29,27.70,30.67,4.73,27.02,1011.62,2030.45,2862.13,2929.81,3169.25,349.80,345.36,8.26,0000 0000 0000 0000 000000
2014-11-02 04:43:36,0.18,1.38,0.00,23.27,27.70,30.62,4.68,26.91,1011.71,2030.63,2860.77,2928.85,3168.13,349.51,345.28,8.29,0000 0000 0000 0000 000000
2014-11-02 04:48:38,0.12,1.38,0.00,23.04,27.70,30.63,4.77,26.98,1011.72,2030.74,2859.53,2927.94,3167.02,349.94,346.03,8.32,0000 0000 0000 0000 000000
2014-11-02 04:53:39,0.12,1.39,0.00,23.08,27.70,30.68,4.77,26.97,1011.73,2030.86,2858.17,2926.98,3166.02,350.04,345.87,8.35,0000 0000 0000 0000 000000
2014-11-02 04:58:40,0.14,1.39,0.00,23.14,27.70,30.70,4.72,26.98,1011.73,2030.87,2856.75,2925.99,3164.93,349.60,345.20,8.38,0000 0000 0000 0000 000000
2014-11-02 05:03:41,0.14,1.39,0.00,23.14,27.70,30.73,4.79,27.18,1011.73,2030.88,2855.39,2924.93,3163.83,350.47,346.49,8.41,0000 0000 0000 0000 000000
2014-11-02 05:08:42,0.10,1.40,0.00,23.18,27.70,30.71,4.80,26.88,1011.73,2030.78,2853.94,2923.92,3162.68,349.91,345.81,8.44,0000 0000 0000 0000 000000
2014-11-02 05:13:44,0.14,1.40,0.00,23.29,27.70,30.70,4.75,26.89,1011.73,2030.82,2852.63,2922.99,3161.58,350.50,346.21,8.47,0000 0000 0000 0000 000000
2014-11-02 05:18:45,0.11,1.41,0.00,23.36,27.70,30.66,4.76,27.13,1011.73,2030.82,2851.32,2921.96,3160.52,349.94,345.65,8.50,0000 0000 0000 0000 000000
2014-11-02 05:23:46,0.16,1.41,0.00,23.24,27.70,30.60,4.81,27.06,1011.73,2030.85,2849.82,2920.90,3159.46,350.44,346.62,8.53,0000 0000 0000 0000 000000
2014-11-02 05:28:47,0.11,1.41,0.00,23.15,27.70,30.62,4.69,27.07,1011.73,2030.78,2848.39,2919.84,3158.25,350.19,346.09,8.56,0000 0000 0000 0000 000000
2014-11-02 05:33:49,0.13,1.42,0.00,23.14,27.70,30.65,4.79,27.03,1011.74,2030.52,2846.74,2918.69,3156.86,349.58,345.41,8.58,0000 0000 0000 0000 000000
2014-11-02 05:38:50,0.09,1.42,0.00,23.24,27.70,30.65,4.75,27.22,1011.74,2030.28,2845.07,2917.45,3155.58,349.35,345.21,8.61,0000 0000 0000 0000 000000
2014-11-02 05:43:51,0.16,1.42,0.00,23.35,27.70,30.66,4.77,27.18,1011.74,2030.27,2843.65,2916.41,3154.49,350.23,345.82,8.64,0000 0000 0000 0000 000000
2014-11-02 05:48:53,0.15,1.43,0.00,23.37,27.70,30.61,4.81,27.17,1011.75,2030.49,2842.19,2915.37,3153.33,349.55,345.21,8.67,0000 0000 0000 0000 000000
2014-11-02 05:53:54,0.12,1.43,0.00,23.25,27.70,30.57,4.75,27.14,1011.75,2030.45,2840.65,2914.28,3152.07,349.90,345.45,8.70,0000 0000 0000 0000 000000
2014-11-02 05:58:55,0.13,1.44,0.00,23.20,27.70,30.58,4.77,27.28,1011.76,2030.50,2839.25,2913.26,3150.93,349.79,345.85,8.73,0000 0000 0000 0000 000000
2014-11-02 06:03:56,0.11,1.44,0.00,23.24,27.70,30.66,4.77,27.18,1011.85,2030.33,2837.69,2912.18,3149.75,350.48,346.38,8.76,0000 0000 0000 0000 000000
2014-11-02 06:08:57,0.18,1.45,0.00,23.28,27.70,30.66,4.78,27.22,1012.14,2030.58,2836.28,2911.14,3148.64,350.22,345.84,8.79,0000 0000 0000 0000 000000
2014-11-02 06:13:59,0.16,1.45,0.00,23.32,27.70,30.67,4.68,27.21,1012.20,2030.66,2834.76,2910.02,3147.48,349.58,345.27,8.82,0000 0000 0000 0000 000000
2014-11-02 06:19:00,0.11,1.45,0.00,23.37,27.70,30.65,4.72,27.21,1012.21,2030.61,2833.23,2908.86,3146.29,349.82,345.65,8.85,0000 0000 0000 0000 000000
2014-11-02 06:24:02,0.20,1.46,0.00,23.41,27.70,30.61,4.80,27.16,1012.18,2030.82,2831.70,2907.80,3145.05,350.33,345.99,8.88,0000 0000 0000 0000 000000
2014-11-02 06:29:03,0.15,1.46,0.00,23.35,27.70,30.56,4.81,27.16,1012.12,2030.81,2830.17,2906.62,3143.83,350.32,346.16,8.91,0000 0000 0000 0000 000000
2014-11-02 06:34:04,0.16,1.47,0.00,23.26,27.70,30.55,4.82,27.07,1012.13,2030.84,2828.59,2905.60,3142.66,350.08,345.80,8.94,0000 0000 0000 0000 000000
2014-11-02 06:39:06,0.13,1.47,0.00,23.24,27.70,30.56,4.81,27.26,1012.06,2030.88,2827.13,2904.50,3141.52,349.93,345.60,8.97,0000 0000 0000 0000 000000
2014-11-02 06:44:07,0.13,1.48,0.00,23.26,27.69,30.66,4.72,27.21,1012.02,2030.89,2825.69,2903.56,3140.46,349.86,345.44,8.99,0000 0000 0000 0000 000000
2014-11-02 06:49:08,0.12,1.48,0.00,23.29,27.69,30.68,4.74,27.14,1011.85,2030.88,2824.28,2902.43,3139.24,350.01,345.72,9.02,0000 0000 0000 0000 000000
2014-11-02 06:54:09,0.15,1.48,0.00,23.31,27.69,30.65,4.81,27.46,1011.83,2030.84,2822.66,2901.30,3137.90,350.18,345.89,9.05,0000 0000 0000 0000 000000
2014-11-02 06:59:11,0.17,1.49,0.00,23.34,27.68,30.65,4.81,27.41,1011.90,2030.88,2821.00,2900.11,3136.64,350.35,345.79,9.08,0000 0000 0000 0000 000000
2014-11-02 07:04:12,0.14,1.49,0.00,23.35,27.67,30.64,4.77,27.44,1011.90,2030.83,2819.38,2898.88,3135.36,349.83,345.29,9.11,0000 0000 0000 0000 000000
2014-11-02 07:09:13,0.14,1.50,0.00,23.34,27.67,30.61,4.76,27.34,1011.93,2030.82,2817.65,2897.63,3134.20,349.87,345.47,9.14,0000 0000 0000 0000 000000
2014-11-02 07:14:15,0.17,1.50,0.00,23.35,27.67,30.61,4.73,27.27,1012.07,2030.87,2816.05,2896.52,3132.88,350.13,345.76,9.17,0000 0000 0000 0000 000000
2014-11-02 07:19:16,0.15,1.51,0.00,23.36,27.67,30.58,4.75,27.18,1012.16,2030.89,2814.50,2895.35,3131.63,350.47,346.00,9.20,0000 0000 0000 0000 000000
2014-11-02 07:24:17,0.12,1.51,0.00,23.32,27.67,30.54,4.69,27.06,1012.20,2030.83,2812.97,2894.24,3130.48,350.06,346.23,9.23,0000 0000 0000 0000 000000
2014-11-02 07:29:18,0.14,1.52,0.00,23.27,27.67,30.57,4.77,27.21,1012.20,2030.88,2811.49,2893.18,3129.34,350.25,346.21,9.26,0000 0000 0000 0000 000000
2014-11-02 07:34:20,0.14,1.52,0.00,23.25,27.67,30.65,4.68,27.26,1012.22,2030.88,2809.85,2892.01,3128.06,349.75,345.48,9.29,0000 0000 0000 0000 000000
2014-11-02 07:39:21,0.14,1.52,0.00,23.27,27.67,30.66,4.85,27.31,1012.22,2030.80,2808.33,2890.82,3126.77,350.11,346.08,9.32,0000 0000 0000 0000 000000
2014-11-02 07:44:22,0.13,1.53,0.00,23.28,27.67,30.62,4.78,27.01,1012.21,2030.82,2806.89,2889.75,3125.64,350.35,346.18,9.35,0000 0000 0000 0000 000000
2014-11-02 07:49:23,0.15,1.53,0.00,23.26,27.67,30.61,4.78,27.03,1012.22,2030.76,2805.21,2888.58,3124.35,350.61,346.47,9.38,0000 0000 0000 0000 000000
2014-11-02 07:54:25,0.17,1.54,0.00,23.26,27.67,30.64,4.79,27.00,1012.22,2030.89,2803.58,2887.48,3123.05,350.46,346.26,9.40,0000 0000 0000 0000 000000
2014-11-02 07:59:26,0.13,1.54,0.00,23.26,27.67,30.61,4.79,26.99,1012.22,2030.82,2801.93,2886.31,3121.73,350.15,346.13,9.43,0000 0000 0000 0000 000000
2014-11-02 08:04:27,0.15,1.55,0.00,23.28,27.67,30.60,4.74,26.98,1012.22,2030.77,2800.47,2885.18,3120.59,350.00,345.98,9.46,0000 0000 0000 0000 000000
2014-11-02 08:09:29,0.12,1.55,0.00,23.29,27.67,30.61,4.86,27.20,1012.22,2030.88,2799.10,2884.19,3119.62,350.28,346.16,9.49,0000 0000 0000 0000 000000
2014-11-02 08:14:30,0.13,1.55,0.00,23.26,27.67,30.60,4.80,27.18,1012.22,2030.91,2797.75,2883.32,3118.61,350.42,346.34,9.52,0000 0000 0000 0000 000000
2014-11-02 08:19:31,0.12,1.56,0.00,23.25,27.67,30.59,4.83,27.06,1012.23,2030.85,2796.42,2882.27,3117.53,349.89,345.84,9.55,0000 0000 0000 0000 000000
2014-11-02 08:24:32,0.12,1.56,0.00,23.30,27.67,30.56,4.83,27.10,1012.23,2030.92,2795.21,2881.42,3116.55,350.55,346.36,9.58,0000 0000 0000 0000 000000
2014-11-02 08:29:34,0.12,1.56,0.00,23.30,27.67,30.57,4.86,27.23,1012.25,2030.87,2793.81,2880.46,3115.48,350.66,346.49,9.61,0000 0000 0000 0000 000000
2014-11-02 08:34:35,0.13,1.57,0.00,23.27,27.67,30.57,4.75,26.98,1012.28,2030.88,2792.53,2879.48,3114.44,350.06,345.78,9.64,0000 0000 0000 0000 000000
2014-11-02 08:39:36,0.06,1.57,0.00,23.26,27.67,30.61,4.78,27.09,1012.43,2030.62,2791.02,2878.51,3113.28,349.81,345.90,9.67,0000 0000 0000 0000 000000
2014-11-02 08:44:37,0.13,1.57,0.00,23.27,27.67,30.59,4.78,27.00,1012.60,2030.42,2789.57,2877.47,3112.12,349.93,346.07,9.70,0000 0000 0000 0000 000000
2014-11-02 08:49:39,0.16,1.58,0.00,23.28,27.67,30.61,4.76,26.96,1012.71,2030.64,2788.24,2876.56,3110.99,350.18,346.20,9.73,0000 0000 0000 0000 000000
2014-11-02 08:54:40,0.21,1.58,0.00,23.30,27.68,30.59,4.71,26.95,1012.71,2030.75,2786.33,2875.26,3109.67,349.29,345.26,9.76,0000 0000 0000 0000 000000
2014-11-02 08:59:42,0.16,1.59,0.00,23.30,27.69,30.61,4.87,27.02,1012.72,2030.72,2784.17,2873.65,3107.90,350.11,346.11,9.79,0000 0000 0000 0000 000000
2014-11-02 09:04:43,0.15,1.60,0.00,23.27,27.70,30.61,4.82,27.02,1012.74,2030.62,2782.54,2872.52,3106.60,350.21,346.25,9.81,0000 0000 0000 0000 000000
2014-11-02 09:09:45,0.16,1.60,0.00,23.30,27.70,30.61,4.75,26.93,1012.77,2030.66,2780.88,2871.37,3105.33,349.88,345.82,9.84,0000 0000 0000 0000 000000
2014-11-02 09:14:46,0.08,1.60,0.00,23.31,27.70,30.63,4.74,26.99,1012.77,2030.24,2779.13,2870.00,3103.86,349.98,345.99,9.87,0000 0000 0000 0000 000000
2014-11-02 09:19:47,0.19,1.61,0.00,23.31,27.70,30.57,4.71,27.13,1012.80,2030.19,2777.44,2868.76,3102.55,349.97,345.87,9.90,0000 0000 0000 0000 000000
2014-11-02 09:24:48,0.13,1.61,0.00,23.31,27.70,30.60,4.79,27.01,1012.90,2030.13,2775.77,2867.55,3101.21,350.20,346.25,9.93,0000 0000 0000 0000 000000
2014-11-02 09:29:49,0.16,1.62,0.00,23.32,27.70,30.62,4.75,26.99,1013.03,2030.25,2774.20,2866.40,3099.89,349.88,345.87,9.96,0000 0000 0000 0000 000000
2014-11-02 09:34:51,0.14,1.62,0.00,23.34,27.71,30.62,4.77,26.97,1013.01,2030.17,2772.63,2865.28,3098.60,350.23,346.32,9.99,0000 0000 0000 0000 000000
2014-11-02 09:39:52,0.13,1.63,0.00,23.35,27.72,30.63,4.78,27.08,1012.92,2030.06,2770.92,2864.08,3097.31,350.27,346.34,10.02,0000 0000 0000 0000 000000
2014-11-02 09:44:54,0.15,1.63,0.00,23.33,27.72,30.58,4.74,26.92,1012.78,2030.07,2769.44,2862.89,3095.99,350.03,345.80,10.05,0000 0000 0000 0000 000000
2014-11-02 09:49:55,0.17,1.63,0.00,23.31,27.72,30.62,4.68,26.88,1012.78,2030.04,2767.77,2861.68,3094.63,349.70,345.80,10.08,0000 0000 0000 0000 000000
2014-11-02 09:54:56,0.14,1.64,0.00,23.32,27.72,30.59,4.78,26.98,1013.03,2030.03,2766.16,2860.52,3093.41,350.32,346.34,10.11,0000 0000 0000 0000 000000
2014-11-02 09:59:58,0.16,1.64,0.00,23.29,27.72,30.62,4.75,26.99,1012.87,2030.03,2764.46,2859.30,3092.03,349.72,345.76,10.14,0000 0000 0000 0000 000000
2014-11-02 10:04:59,0.16,1.65,0.00,23.27,27.73,30.61,4.81,27.02,1012.78,2030.01,2762.78,2858.05,3090.69,350.13,346.20,10.17,0000 0000 0000 0000 000000
2014-11-02 10:10:00,0.15,1.65,0.00,23.31,27.74,30.61,4.80,27.02,1012.91,2030.02,2761.20,2856.88,3089.39,350.54,346.60,10.20,0000 0000 0000 0000 000000
2014-11-02 10:15:02,0.17,1.66,0.00,23.31,27.75,30.64,4.71,26.99,1012.92,2030.02,2759.53,2855.65,3088.04,349.39,345.69,10.22,0000 0000 0000 0000 000000
2014-11-02 10:20:03,0.15,1.66,0.00,23.28,27.75,30.65,4.74,27.01,1012.94,2030.01,2757.91,2854.56,3086.79,349.65,345.76,10.25,0000 0000 0000 0000 000000
2014-11-02 10:25:04,0.15,1.67,0.00,23.27,27.75,30.67,4.77,26.99,1012.81,2030.01,2756.27,2853.37,3085.55,350.03,346.03,10.28,0000 0000 0000 0000 000000
2014-11-02 10:30:05,0.16,1.67,0.00,23.29,27.75,30.68,4.85,27.11,1012.73,2030.00,2754.55,2852.04,3084.12,350.94,347.11,10.31,0000 0000 0000 0000 000000
2014-11-02 10:35:06,0.17,1.68,0.00,23.32,27.75,30.67,4.78,27.15,1012.73,2030.00,2752.80,2850.82,3082.81,349.75,345.64,10.34,0000 0000 0000 0000 000000
2014-11-02 10:40:07,0.17,1.68,0.00,23.32,27.75,30.64,4.79,27.07,1012.72,2030.00,2751.13,2849.48,3081.37,349.71,345.88,10.37,0000 0000 0000 0000 000000
2014-11-02 10:45:08,0.14,1.69,0.00,23.29,27.75,30.66,4.75,27.06,1012.71,2030.00,2749.63,2848.38,3080.03,349.79,345.85,10.40,0000 0000 0000 0000 000000
2014-11-02 10:50:10,0.15,1.69,0.00,23.26,27.75,30.67,4.74,27.16,1012.71,2030.00,2748.02,2847.19,3078.81,350.20,346.48,10.43,0000 0000 0000 0000 000000
2014-11-02 10:55:11,0.16,1.70,0.00,23.25,27.75,30.72,4.80,27.08,1012.71,2030.00,2746.48,2845.99,3077.62,349.92,346.07,10.46,0000 0000 0000 0000 000000
2014-11-02 11:00:12,0.14,1.70,0.00,23.27,27.75,30.73,4.81,27.03,1012.71,2030.00,2744.87,2844.88,3076.35,350.52,346.39,10.49,0000 0000 0000 0000 000000
2014-11-02 11:05:13,0.15,1.71,0.00,23.28,27.75,30.76,4.81,27.09,1012.71,2030.00,2743.37,2843.76,3075.14,350.32,346.35,10.52,0000 0000 0000 0000 000000
2014-11-02 11:10:15,0.15,1.71,0.00,23.27,27.75,30.75,4.74,27.05,1012.71,2030.01,2741.79,2842.70,3073.92,350.12,346.10,10.55,0000 0000 0000 0000 000000
2014-11-02 11:15:16,0.16,1.72,0.00,23.29,27.75,30.74,4.80,27.02,1012.72,2030.00,2740.16,2841.49,3072.67,350.34,346.50,10.58,0000 0000 0000 0000 000000
2014-11-02 11:20:17,0.15,1.72,0.00,23.31,27.75,30.72,4.73,26.91,1012.73,2030.00,2738.57,2840.38,3071.47,349.95,346.00,10.61,0000 0000 0000 0000 000000
2014-11-02 11:25:18,0.14,1.72,0.00,23.32,27.75,30.71,4.77,26.95,1012.72,2030.00,2736.89,2839.18,3070.27,349.90,345.92,10.63,0000 0000 0000 0000 000000
2014-11-02 11:30:20,0.13,1.73,0.00,23.32,27.75,30.69,4.70,26.84,1012.76,2030.00,2735.51,2838.12,3069.14,349.73,345.91,10.66,0000 0000 0000 0000 000000
2014-11-02 11:35:21,0.13,1.73,0.00,23.30,27.75,30.71,4.80,26.98,1012.82,2030.00,2734.05,2837.08,3067.99,350.35,346.20,10.69,0000 0000 0000 0000 000000
2014-11-02 11:40:23,0.16,1.74,0.00,23.32,27.75,30.73,4.79,27.00,1012.80,2030.00,2732.52,2835.97,3066.71,349.98,345.99,10.72,0000 0000 0000 0000 000000
2014-11-02 11:45:24,0.14,1.74,0.00,23.31,27.75,30.70,4.80,26.98,1012.79,2030.00,2731.01,2834.89,3065.61,350.47,346.40,10.75,0000 0000 0000 0000 000000
2014-11-02 11:50:25,0.15,1.75,0.00,23.30,27.75,30.69,4.68,26.88,1012.74,2030.00,2729.55,2833.81,3064.45,348.97,345.23,10.78,0000 0000 0000 0000 000000
2014-11-02 11:55:27,0.13,1.75,0.00,23.29,27.75,30.71,4.71,26.95,1012.76,2030.00,2728.08,2832.80,3063.33,350.20,345.99,10.81,0000 0000 0000 0000 000000
2014-11-02 12:00:28,0.14,1.75,0.00,23.30,27.75,30.68,4.76,27.01,1012.96,2030.00,2726.65,2831.77,3062.14,350.34,346.32,10.84,0000 0000 0000 0000 000000
2014-11-02 12:05:29,0.13,1.76,0.00,23.32,27.75,30.67,4.76,26.89,1012.89,2030.00,2725.27,2830.77,3061.00,349.67,345.71,10.87,0000 0000 0000 0000 000000
2014-11-02 12:10:31,0.15,1.76,0.00,23.29,27.76,30.69,4.78,26.99,1013.04,2030.00,2723.81,2829.67,3059.87,350.01,346.27,10.90,0000 0000 0000 0000 000000
2014-11-02 12:15:32,0.12,1.77,0.00,23.30,27.77,30.68,4.67,26.95,1012.88,2030.00,2722.55,2828.72,3058.82,349.91,345.84,10.93,0000 0000 0000 0000 000000
2014-11-02 12:20:33,0.14,1.77,0.00,23.33,27.77,30.71,4.79,27.01,1012.87,2030.00,2721.16,2827.74,3057.72,350.32,346.26,10.96,0000 0000 0000 0000 000000
2014-11-02 12:25:34,0.12,1.77,0.00,23.31,27.77,30.70,4.84,26.91,1013.09,2030.00,2719.82,2826.78,3056.71,350.65,346.73,10.99,0000 0000 0000 0000 000000
2014-11-02 12:30:35,0.11,1.78,0.00,23.29,27.77,30.71,4.90,26.95,1013.14,2030.00,2718.52,2825.89,3055.77,350.75,346.63,11.02,0000 0000 0000 0000 000000
2014-11-02 12:35:36,0.14,1.78,0.00,23.29,27.77,30.69,4.79,26.97,1013.16,2030.00,2717.21,2824.88,3054.62,349.98,346.17,11.04,0000 0000 0000 0000 000000
2014-11-02 12:40:38,0.12,1.79,0.00,23.29,27.77,30.68,4.79,26.93,1013.16,2030.00,2715.90,2823.94,3053.53,350.13,346.26,11.07,0000 0000 0000 0000 000000
2014-11-02 12:45:39,0.13,1.79,0.00,23.27,27.77,30.70,4.81,26.88,1013.19,2030.00,2714.69,2823.03,3052.56,350.07,346.21,11.10,0000 0000 0000 0000 000000
2014-11-02 12:50:40,0.12,1.79,0.00,23.27,27.77,30.71,4.72,26.86,1013.19,2029.99,2713.49,2822.06,3051.60,349.85,345.91,11.13,0000 0000 0000 0000 000000
2014-11-02 12:55:42,0.12,1.80,0.00,23.30,27.77,30.72,4.75,26.82,1013.19,2029.99,2712.13,2821.08,3050.45,349.77,346.08,11.16,0000 0000 0000 0000 000000
2014-11-02 13:00:43,0.14,1.80,0.00,23.30,27.77,30.73,4.75,26.76,1013.15,2029.99,2710.74,2820.12,3049.41,350.13,346.27,11.19,0000 0000 0000 0000 000000
2014-11-02 13:05:44,0.13,1.80,0.00,23.31,27.78,30.71,4.80,26.97,1013.16,2029.99,2709.45,2819.14,3048.37,350.26,346.40,11.22,0000 0000 0000 0000 000000